Time,TemperatureF,DewpointF,PressureIn,WindDirection,WindDirectionDegrees,WindSpeedMPH,WindSpeedGustMPH,Humidity,HourlyPrecipIn,Conditions,Clouds,dailyrainin,SoftwareType,DateUTC
2013-03-23 00:00:00,24.9,18.0,29.58,ESE,112,6.8,6.8,74,0.00,,,0.00,Rainwise IP-100,2013-03-23 04:00:00,
2013-03-23 00:05:00,24.6,21.0,29.58,WSW,247,0.0,6.8,75,0.00,,,0.00,Rainwise IP-100,2013-03-23 04:05:00,
2013-03-23 00:10:00,24.4,18.0,29.58,WNW,292,0.0,7.9,76,0.00,,,0.00,Rainwise IP-100,2013-03-23 04:10:00,
2013-03-23 00:11:00,24.3,18.0,29.58,West,270,0.0,7.2,76,0.00,,,0.00,Rainwise IP-100,2013-03-23 04:11:00,
2013-03-23 00:12:00,24.3,18.0,29.58,West,270,1.2,7.2,76,0.00,,,0.00,Rainwise IP-100,2013-03-23 04:12:00,
2013-03-23 00:16:00,24.0,18.0,29.58,WNW,292,2.3,7.5,77,0.00,,,0.00,Rainwise IP-100,2013-03-23 04:16:00,
2013-03-23 00:21:00,23.8,18.0,29.58,West,270,2.3,5.1,77,0.00,,,0.00,Rainwise IP-100,2013-03-23 04:21:00,
2013-03-23 00:26:00,23.8,18.0,29.58,WSW,247,1.2,6.5,77,0.00,,,0.00,Rainwise IP-100,2013-03-23 04:26:00,
2013-03-23 00:31:00,23.7,18.0,29.58,SW,225,1.2,7.5,77,0.00,,,0.00,Rainwise IP-100,2013-03-23 04:31:00,
2013-03-23 00:36:00,23.5,18.0,29.58,WSW,247,0.0,4.4,78,0.00,,,0.00,Rainwise IP-100,2013-03-23 04:36:00,
2013-03-23 00:41:00,23.3,16.0,29.58,West,270,1.9,4.2,78,0.00,,,0.00,Rainwise IP-100,2013-03-23 04:41:00,
2013-03-23 00:46:00,23.1,16.0,29.57,SW,225,0.0,3.7,78,0.00,,,0.00,Rainwise IP-100,2013-03-23 04:46:00,
2013-03-23 00:51:00,23.1,16.0,29.57,SSW,202,1.4,5.4,78,0.00,,,0.00,Rainwise IP-100,2013-03-23 04:51:00,
2013-03-23 00:56:00,23.0,16.0,29.57,WNW,292,1.6,4.0,79,0.00,,,0.00,Rainwise IP-100,2013-03-23 04:56:00,
2013-03-23 01:02:00,23.0,16.0,29.57,West,270,1.2,3.3,79,0.00,,,0.00,Rainwise IP-100,2013-03-23 05:02:00,
2013-03-23 01:07:00,22.9,16.0,29.57,SSW,202,0.0,4.7,79,0.00,,,0.00,Rainwise IP-100,2013-03-23 05:07:00,
2013-03-23 01:12:00,22.9,16.0,29.57,WSW,247,0.0,4.2,79,0.00,,,0.00,Rainwise IP-100,2013-03-23 05:12:00,
2013-03-23 01:17:00,22.9,16.0,29.56,WNW,292,2.1,9.8,79,0.00,,,0.00,Rainwise IP-100,2013-03-23 05:17:00,
2013-03-23 01:22:00,22.9,16.0,29.57,WSW,247,1.9,4.4,78,0.00,,,0.00,Rainwise IP-100,2013-03-23 05:22:00,
2013-03-23 01:27:00,22.9,16.0,29.56,WNW,292,0.0,2.8,78,0.00,,,0.00,Rainwise IP-100,2013-03-23 05:27:00,
2013-03-23 01:32:00,22.7,16.0,29.56,WNW,292,0.0,3.3,79,0.00,,,0.00,Rainwise IP-100,2013-03-23 05:32:00,
2013-03-23 01:37:00,22.5,16.0,29.56,NW,315,2.1,5.1,79,0.00,,,0.00,Rainwise IP-100,2013-03-23 05:37:00,
2013-03-23 01:42:00,22.4,16.0,29.55,SSE,157,5.1,5.1,79,0.00,,,0.00,Rainwise IP-100,2013-03-23 05:42:00,
2013-03-23 01:47:00,22.4,16.0,29.55,SE,135,1.6,5.1,79,0.00,,,0.00,Rainwise IP-100,2013-03-23 05:47:00,
2013-03-23 01:52:00,22.3,16.0,29.54,WNW,292,2.8,3.5,79,0.00,,,0.00,Rainwise IP-100,2013-03-23 05:52:00,
2013-03-23 01:57:00,22.3,16.0,29.54,SSW,202,1.2,4.7,79,0.00,,,0.00,Rainwise IP-100,2013-03-23 05:57:00,
2013-03-23 02:02:00,22.2,16.0,29.54,WSW,247,0.0,4.2,79,0.00,,,0.00,Rainwise IP-100,2013-03-23 06:02:00,
2013-03-23 02:07:00,22.0,16.0,29.55,WSW,247,1.9,3.7,79,0.00,,,0.00,Rainwise IP-100,2013-03-23 06:07:00,
2013-03-23 02:12:00,22.0,16.0,29.54,WNW,292,1.9,3.7,78,0.00,,,0.00,Rainwise IP-100,2013-03-23 06:12:00,
2013-03-23 02:17:00,22.0,16.0,29.54,NW,315,1.6,6.3,78,0.00,,,0.00,Rainwise IP-100,2013-03-23 06:17:00,
2013-03-23 02:22:00,22.0,16.0,29.54,WNW,292,3.0,4.4,77,0.00,,,0.00,Rainwise IP-100,2013-03-23 06:22:00,
2013-03-23 02:27:00,22.0,16.0,29.54,WNW,292,1.9,4.7,77,0.00,,,0.00,Rainwise IP-100,2013-03-23 06:27:00,
2013-03-23 02:32:00,22.1,16.0,29.54,WSW,247,0.0,6.8,76,0.00,,,0.00,Rainwise IP-100,2013-03-23 06:32:00,
2013-03-23 02:37:00,22.1,16.0,29.54,WNW,292,1.2,5.8,76,0.00,,,0.00,Rainwise IP-100,2013-03-23 06:37:00,
2013-03-23 02:42:00,22.0,16.0,29.54,WSW,247,2.3,6.1,76,0.00,,,0.00,Rainwise IP-100,2013-03-23 06:42:00,
2013-03-23 02:47:00,22.0,16.0,29.54,WSW,247,1.4,4.7,75,0.00,,,0.00,Rainwise IP-100,2013-03-23 06:47:00,
2013-03-23 02:52:00,21.9,16.0,29.53,WSW,247,2.3,3.5,75,0.00,,,0.00,Rainwise IP-100,2013-03-23 06:52:00,
2013-03-23 02:57:00,21.8,16.0,29.53,SW,225,0.0,5.8,75,0.00,,,0.00,Rainwise IP-100,2013-03-23 06:57:00,
2013-03-23 03:02:00,21.8,16.0,29.53,WSW,247,0.0,5.8,75,0.00,,,0.00,Rainwise IP-100,2013-03-23 07:02:00,
2013-03-23 03:07:00,21.8,16.0,29.53,North,360,3.3,7.2,76,0.00,,,0.00,Rainwise IP-100,2013-03-23 07:07:00,
2013-03-23 03:12:00,21.8,16.0,29.52,WSW,247,5.8,14.5,76,0.00,,,0.00,Rainwise IP-100,2013-03-23 07:12:00,
2013-03-23 03:17:00,21.8,16.0,29.53,West,270,4.2,13.1,76,0.00,,,0.00,Rainwise IP-100,2013-03-23 07:17:00,
2013-03-23 03:22:00,21.7,16.0,29.52,NW,315,3.0,12.1,76,0.00,,,0.00,Rainwise IP-100,2013-03-23 07:22:00,
2013-03-23 03:27:00,21.8,16.0,29.53,WNW,292,2.1,10.0,76,0.00,,,0.00,Rainwise IP-100,2013-03-23 07:27:00,
2013-03-23 03:32:00,21.9,16.0,29.52,WNW,292,2.6,8.2,75,0.00,,,0.00,Rainwise IP-100,2013-03-23 07:32:00,
2013-03-23 03:37:00,22.0,16.0,29.52,WSW,247,1.6,5.8,75,0.00,,,0.00,Rainwise IP-100,2013-03-23 07:37:00,
2013-03-23 03:42:00,21.9,16.0,29.52,WNW,292,2.8,7.7,75,0.00,,,0.00,Rainwise IP-100,2013-03-23 07:42:00,
2013-03-23 03:47:00,21.8,16.0,29.52,WNW,292,2.1,5.4,76,0.00,,,0.00,Rainwise IP-100,2013-03-23 07:47:00,
2013-03-23 03:52:00,21.9,16.0,29.53,East,90,0.0,7.7,76,0.00,,,0.00,Rainwise IP-100,2013-03-23 07:52:00,
2013-03-23 03:57:00,21.9,16.0,29.53,WNW,292,3.5,4.7,76,0.00,,,0.00,Rainwise IP-100,2013-03-23 07:57:00,
2013-03-23 04:02:00,21.9,16.0,29.52,WSW,247,1.6,3.5,76,0.00,,,0.00,Rainwise IP-100,2013-03-23 08:02:00,
2013-03-23 04:07:00,21.7,16.0,29.52,WSW,247,1.4,3.3,76,0.00,,,0.00,Rainwise IP-100,2013-03-23 08:07:00,
2013-03-23 04:12:00,21.4,14.0,29.52,WSW,247,0.0,3.5,77,0.00,,,0.00,Rainwise IP-100,2013-03-23 08:12:00,
2013-03-23 04:17:00,21.3,14.0,29.52,WSW,247,0.0,3.0,77,0.00,,,0.00,Rainwise IP-100,2013-03-23 08:17:00,
2013-03-23 04:22:00,21.2,14.0,29.51,NNE,22,0.0,3.3,77,0.00,,,0.00,Rainwise IP-100,2013-03-23 08:22:00,
2013-03-23 04:27:00,21.2,16.0,29.51,West,270,1.6,2.8,78,0.00,,,0.00,Rainwise IP-100,2013-03-23 08:27:00,
2013-03-23 04:32:00,21.1,16.0,29.51,WNW,292,1.2,5.4,78,0.00,,,0.00,Rainwise IP-100,2013-03-23 08:32:00,
2013-03-23 04:37:00,21.1,16.0,29.51,South,180,2.6,8.2,79,0.00,,,0.00,Rainwise IP-100,2013-03-23 08:37:00,
2013-03-23 04:42:00,21.1,16.0,29.51,SSW,202,0.0,4.0,79,0.00,,,0.00,Rainwise IP-100,2013-03-23 08:42:00,
2013-03-23 04:47:00,21.2,16.0,29.51,WNW,292,1.6,5.6,79,0.00,,,0.00,Rainwise IP-100,2013-03-23 08:47:00,
2013-03-23 04:52:00,21.3,16.0,29.51,South,180,0.0,7.0,79,0.00,,,0.00,Rainwise IP-100,2013-03-23 08:52:00,
2013-03-23 04:57:00,21.4,16.0,29.51,WSW,247,1.4,4.7,79,0.00,,,0.00,Rainwise IP-100,2013-03-23 08:57:00,
2013-03-23 05:02:00,21.5,16.0,29.51,WSW,247,1.9,4.2,79,0.00,,,0.00,Rainwise IP-100,2013-03-23 09:02:00,
2013-03-23 05:07:00,21.5,16.0,29.50,WNW,292,1.4,6.3,79,0.00,,,0.00,Rainwise IP-100,2013-03-23 09:07:00,
2013-03-23 05:12:00,21.7,16.0,29.50,WSW,247,1.4,6.5,79,0.00,,,0.00,Rainwise IP-100,2013-03-23 09:12:00,
2013-03-23 05:17:00,21.8,16.0,29.50,WNW,292,1.4,6.8,79,0.00,,,0.00,Rainwise IP-100,2013-03-23 09:17:00,
2013-03-23 05:22:00,21.8,16.0,29.50,WSW,247,2.1,4.7,79,0.00,,,0.00,Rainwise IP-100,2013-03-23 09:22:00,
2013-03-23 05:27:00,21.7,16.0,29.50,West,270,3.0,5.8,79,0.00,,,0.00,Rainwise IP-100,2013-03-23 09:27:00,
2013-03-23 05:32:00,21.8,18.0,29.50,WSW,247,2.1,7.9,80,0.00,,,0.00,Rainwise IP-100,2013-03-23 09:32:00,
2013-03-23 05:37:00,21.9,18.0,29.49,WSW,247,2.1,11.7,80,0.00,,,0.00,Rainwise IP-100,2013-03-23 09:37:00,
2013-03-23 05:42:00,21.9,18.0,29.50,SSW,202,4.0,6.1,80,0.00,,,0.00,Rainwise IP-100,2013-03-23 09:42:00,
2013-03-23 05:47:00,21.9,18.0,29.50,West,270,2.6,9.8,80,0.00,,,0.00,Rainwise IP-100,2013-03-23 09:47:00,
2013-03-23 05:52:00,21.9,18.0,29.49,SSW,202,11.9,11.9,80,0.00,,,0.00,Rainwise IP-100,2013-03-23 09:52:00,
2013-03-23 05:57:00,21.9,18.0,29.49,WSW,247,4.2,17.7,81,0.00,,,0.00,Rainwise IP-100,2013-03-23 09:57:00,
2013-03-23 06:02:00,22.0,18.0,29.49,SSE,157,3.7,17.3,81,0.00,,,0.00,Rainwise IP-100,2013-03-23 10:02:00,
2013-03-23 06:07:00,22.0,18.0,29.49,WSW,247,7.5,18.4,81,0.00,,,0.00,Rainwise IP-100,2013-03-23 10:07:00,
2013-03-23 06:12:00,22.0,18.0,29.49,WNW,292,4.4,12.4,81,0.00,,,0.00,Rainwise IP-100,2013-03-23 10:12:00,
2013-03-23 06:17:00,22.2,18.0,29.50,WSW,247,2.1,13.5,81,0.00,,,0.00,Rainwise IP-100,2013-03-23 10:17:00,
2013-03-23 06:22:00,22.2,18.0,29.49,WSW,247,1.4,14.5,81,0.00,,,0.00,Rainwise IP-100,2013-03-23 10:22:00,
2013-03-23 06:27:00,22.3,18.0,29.49,WSW,247,1.6,15.4,81,0.00,,,0.00,Rainwise IP-100,2013-03-23 10:27:00,
2013-03-23 06:32:00,22.3,18.0,29.49,WSW,247,1.4,6.8,81,0.00,,,0.00,Rainwise IP-100,2013-03-23 10:32:00,
2013-03-23 06:37:00,22.2,18.0,29.50,West,270,1.6,8.6,81,0.00,,,0.00,Rainwise IP-100,2013-03-23 10:37:00,
2013-03-23 06:42:00,22.3,18.0,29.49,WSW,247,3.3,9.6,81,0.00,,,0.00,Rainwise IP-100,2013-03-23 10:42:00,
2013-03-23 06:47:00,22.3,18.0,29.49,WSW,247,5.1,11.2,81,0.00,,,0.00,Rainwise IP-100,2013-03-23 10:47:00,
2013-03-23 06:52:00,22.3,18.0,29.49,WSW,247,12.4,12.4,81,0.00,,,0.00,Rainwise IP-100,2013-03-23 10:52:00,
2013-03-23 06:57:00,22.4,18.0,29.49,SW,225,2.3,12.4,81,0.00,,,0.00,Rainwise IP-100,2013-03-23 10:57:00,
2013-03-23 07:02:00,22.6,18.0,29.49,WSW,247,3.0,4.0,81,0.00,,,0.00,Rainwise IP-100,2013-03-23 11:02:00,
2013-03-23 07:07:00,22.7,18.0,29.49,WSW,247,0.0,5.8,81,0.00,,,0.00,Rainwise IP-100,2013-03-23 11:07:00,
2013-03-23 07:12:00,22.8,18.0,29.49,WSW,247,4.0,5.1,81,0.00,,,0.00,Rainwise IP-100,2013-03-23 11:12:00,
2013-03-23 07:17:00,22.9,18.0,29.49,WSW,247,2.3,5.1,81,0.00,,,0.00,Rainwise IP-100,2013-03-23 11:17:00,
2013-03-23 07:22:00,22.9,18.0,29.49,WSW,247,2.3,4.9,81,0.00,,,0.00,Rainwise IP-100,2013-03-23 11:22:00,
2013-03-23 07:28:00,23.0,18.0,29.49,West,270,3.3,10.0,81,0.00,,,0.00,Rainwise IP-100,2013-03-23 11:28:00,
2013-03-23 07:33:00,23.2,18.0,29.49,WSW,247,8.6,10.3,80,0.00,,,0.00,Rainwise IP-100,2013-03-23 11:33:00,
2013-03-23 07:38:00,23.4,18.0,29.49,SW,225,4.0,12.6,80,0.00,,,0.00,Rainwise IP-100,2013-03-23 11:38:00,
2013-03-23 07:43:00,23.6,18.0,29.49,WSW,247,2.8,18.4,80,0.00,,,0.00,Rainwise IP-100,2013-03-23 11:43:00,
2013-03-23 07:48:00,23.9,18.0,29.49,WSW,247,2.6,9.8,80,0.00,,,0.00,Rainwise IP-100,2013-03-23 11:48:00,
2013-03-23 07:53:00,24.2,18.0,29.48,WSW,247,2.8,6.1,79,0.00,,,0.00,Rainwise IP-100,2013-03-23 11:53:00,
2013-03-23 07:58:00,24.4,18.0,29.48,WSW,247,2.8,6.5,79,0.00,,,0.00,Rainwise IP-100,2013-03-23 11:58:00,
2013-03-23 08:03:00,24.6,21.0,29.48,WSW,247,2.3,4.7,78,0.00,,,0.00,Rainwise IP-100,2013-03-23 12:03:00,
2013-03-23 08:08:00,24.8,21.0,29.48,SSW,202,5.1,13.1,78,0.00,,,0.00,Rainwise IP-100,2013-03-23 12:08:00,
2013-03-23 08:13:00,25.0,21.0,29.48,WSW,247,3.7,10.3,78,0.00,,,0.00,Rainwise IP-100,2013-03-23 12:13:00,
2013-03-23 08:18:00,25.3,21.0,29.48,WSW,247,2.8,9.6,77,0.00,,,0.00,Rainwise IP-100,2013-03-23 12:18:00,
2013-03-23 08:23:00,25.8,21.0,29.47,SSW,202,1.4,6.5,77,0.00,,,0.00,Rainwise IP-100,2013-03-23 12:23:00,
2013-03-23 08:28:00,26.3,21.0,29.48,WSW,247,1.6,10.3,76,0.00,,,0.00,Rainwise IP-100,2013-03-23 12:28:00,
2013-03-23 08:33:00,26.9,21.0,29.48,SW,225,1.9,4.2,75,0.00,,,0.00,Rainwise IP-100,2013-03-23 12:33:00,
2013-03-23 08:38:00,27.4,21.0,29.48,SSW,202,1.2,4.4,73,0.00,,,0.00,Rainwise IP-100,2013-03-23 12:38:00,
2013-03-23 08:43:00,28.0,21.0,29.47,SSW,202,1.2,4.0,72,0.00,,,0.00,Rainwise IP-100,2013-03-23 12:43:00,
2013-03-23 08:48:00,28.7,21.0,29.47,SSW,202,1.2,6.1,71,0.00,,,0.00,Rainwise IP-100,2013-03-23 12:48:00,
2013-03-23 08:53:00,29.5,23.0,29.47,WSW,247,2.3,4.9,70,0.00,,,0.00,Rainwise IP-100,2013-03-23 12:53:00,
2013-03-23 08:58:00,29.9,23.0,29.47,SSW,202,0.0,7.2,69,0.00,,,0.00,Rainwise IP-100,2013-03-23 12:58:00,
2013-03-23 09:03:00,30.2,23.0,29.47,SSW,202,2.8,6.1,68,0.00,,,0.00,Rainwise IP-100,2013-03-23 13:03:00,
2013-03-23 09:08:00,30.8,21.0,29.47,SSW,202,4.4,6.3,66,0.00,,,0.00,Rainwise IP-100,2013-03-23 13:08:00,
2013-03-23 09:13:00,31.2,21.0,29.47,WSW,247,3.0,5.8,66,0.00,,,0.00,Rainwise IP-100,2013-03-23 13:13:00,
2013-03-23 09:18:00,31.4,21.0,29.47,WSW,247,3.3,5.8,65,0.00,,,0.00,Rainwise IP-100,2013-03-23 13:18:00,
2013-03-23 09:23:00,31.4,21.0,29.46,WSW,247,2.6,7.0,65,0.00,,,0.00,Rainwise IP-100,2013-03-23 13:23:00,
2013-03-23 09:28:00,31.6,23.0,29.46,SSW,202,2.1,6.8,64,0.00,,,0.00,Rainwise IP-100,2013-03-23 13:28:00,
2013-03-23 09:33:00,32.3,21.0,29.46,WNW,292,6.3,6.8,63,0.00,,,0.00,Rainwise IP-100,2013-03-23 13:33:00,
2013-03-23 09:38:00,33.0,23.0,29.45,WNW,292,3.7,7.0,62,0.00,,,0.00,Rainwise IP-100,2013-03-23 13:38:00,
2013-03-23 09:43:00,33.3,21.0,29.44,SSW,202,2.6,9.3,60,0.00,,,0.00,Rainwise IP-100,2013-03-23 13:43:00,
2013-03-23 09:48:00,33.7,23.0,29.45,SSE,157,1.6,6.3,59,0.00,,,0.00,Rainwise IP-100,2013-03-23 13:48:00,
2013-03-23 09:53:00,34.2,23.0,29.45,WSW,247,3.0,11.2,59,0.00,,,0.00,Rainwise IP-100,2013-03-23 13:53:00,
2013-03-23 09:58:00,34.2,23.0,29.45,WNW,292,4.4,9.8,58,0.00,,,0.00,Rainwise IP-100,2013-03-23 13:58:00,
2013-03-23 10:03:00,34.1,21.0,29.45,WNW,292,1.9,10.5,57,0.00,,,0.00,Rainwise IP-100,2013-03-23 14:03:00,
2013-03-23 10:08:00,34.2,21.0,29.45,NNW,337,3.0,13.8,57,0.00,,,0.00,Rainwise IP-100,2013-03-23 14:08:00,
2013-03-23 10:13:00,34.4,21.0,29.45,WNW,292,3.7,13.3,56,0.00,,,0.00,Rainwise IP-100,2013-03-23 14:13:00,
2013-03-23 10:18:00,34.6,21.0,29.44,SSE,157,2.3,10.3,56,0.00,,,0.00,Rainwise IP-100,2013-03-23 14:18:00,
2013-03-23 10:23:00,35.0,21.0,29.44,WSW,247,5.4,7.9,56,0.00,,,0.00,Rainwise IP-100,2013-03-23 14:23:00,
2013-03-23 10:28:00,35.0,21.0,29.44,WNW,292,9.6,12.4,55,0.00,,,0.00,Rainwise IP-100,2013-03-23 14:28:00,
2013-03-23 10:33:00,34.8,21.0,29.43,NNW,337,5.8,9.6,55,0.00,,,0.00,Rainwise IP-100,2013-03-23 14:33:00,
2013-03-23 10:38:00,35.3,21.0,29.44,West,270,6.5,9.8,55,0.00,,,0.00,Rainwise IP-100,2013-03-23 14:38:00,
2013-03-23 10:43:00,35.6,21.0,29.43,WNW,292,3.0,13.8,54,0.00,,,0.00,Rainwise IP-100,2013-03-23 14:43:00,
2013-03-23 10:48:00,35.8,21.0,29.44,North,360,3.3,15.4,54,0.00,,,0.00,Rainwise IP-100,2013-03-23 14:48:00,
2013-03-23 10:53:00,36.5,23.0,29.43,WNW,292,4.9,8.9,53,0.00,,,0.00,Rainwise IP-100,2013-03-23 14:53:00,
2013-03-23 10:58:00,37.1,21.0,29.43,WNW,292,2.6,14.7,51,0.00,,,0.00,Rainwise IP-100,2013-03-23 14:58:00,
2013-03-23 11:03:00,37.0,21.0,29.43,WNW,292,2.6,11.2,50,0.00,,,0.00,Rainwise IP-100,2013-03-23 15:03:00,
2013-03-23 11:08:00,37.2,21.0,29.43,WNW,292,2.1,7.5,50,0.00,,,0.00,Rainwise IP-100,2013-03-23 15:08:00,
2013-03-23 11:13:00,38.0,23.0,29.43,WSW,247,2.1,4.4,50,0.00,,,0.00,Rainwise IP-100,2013-03-23 15:13:00,
2013-03-23 11:18:00,38.4,21.0,29.43,SSW,202,2.6,10.0,49,0.00,,,0.00,Rainwise IP-100,2013-03-23 15:18:00,
2013-03-23 11:23:00,38.4,21.0,29.43,WNW,292,5.8,11.7,49,0.00,,,0.00,Rainwise IP-100,2013-03-23 15:23:00,
2013-03-23 11:28:00,38.3,21.0,29.43,WNW,292,7.0,12.8,49,0.00,,,0.00,Rainwise IP-100,2013-03-23 15:28:00,
2013-03-23 11:33:00,37.8,21.0,29.43,WSW,247,2.1,15.9,48,0.00,,,0.00,Rainwise IP-100,2013-03-23 15:33:00,
2013-03-23 11:38:00,37.8,21.0,29.43,West,270,12.1,23.6,49,0.00,,,0.00,Rainwise IP-100,2013-03-23 15:38:00,
2013-03-23 11:43:00,37.9,21.0,29.42,WSW,247,1.4,26.3,49,0.00,,,0.00,Rainwise IP-100,2013-03-23 15:43:00,
2013-03-23 11:48:00,37.6,21.0,29.43,NW,315,1.4,9.6,48,0.00,,,0.00,Rainwise IP-100,2013-03-23 15:48:00,
2013-03-23 11:53:00,37.5,21.0,29.43,NW,315,6.5,12.1,48,0.00,,,0.00,Rainwise IP-100,2013-03-23 15:53:00,
2013-03-23 11:58:00,37.1,21.0,29.42,NW,315,4.9,13.5,48,0.00,,,0.00,Rainwise IP-100,2013-03-23 15:58:00,
2013-03-23 12:03:00,36.5,21.0,29.42,West,270,5.6,15.2,49,0.00,,,0.00,Rainwise IP-100,2013-03-23 16:03:00,
2013-03-23 12:08:00,36.1,18.0,29.42,SSW,202,4.7,11.2,49,0.00,,,0.00,Rainwise IP-100,2013-03-23 16:08:00,
2013-03-23 12:13:00,35.9,18.0,29.42,WNW,292,1.6,17.7,49,0.00,,,0.00,Rainwise IP-100,2013-03-23 16:13:00,
2013-03-23 12:18:00,36.1,21.0,29.42,WNW,292,3.5,12.6,50,0.00,,,0.00,Rainwise IP-100,2013-03-23 16:18:00,
2013-03-23 12:23:00,36.3,21.0,29.41,SSE,157,2.8,9.8,50,0.00,,,0.00,Rainwise IP-100,2013-03-23 16:23:00,
2013-03-23 12:28:00,36.4,21.0,29.42,WNW,292,4.2,20.1,50,0.00,,,0.00,Rainwise IP-100,2013-03-23 16:28:00,
2013-03-23 12:33:00,36.5,21.0,29.42,NW,315,7.7,18.0,49,0.00,,,0.00,Rainwise IP-100,2013-03-23 16:33:00,
2013-03-23 12:38:00,36.6,21.0,29.42,NW,315,7.7,23.1,48,0.00,,,0.00,Rainwise IP-100,2013-03-23 16:38:00,
2013-03-23 12:43:00,36.5,21.0,29.42,NW,315,17.5,17.5,48,0.00,,,0.00,Rainwise IP-100,2013-03-23 16:43:00,
2013-03-23 12:48:00,36.1,18.0,29.42,WSW,247,6.5,19.8,49,0.00,,,0.00,Rainwise IP-100,2013-03-23 16:48:00,
2013-03-23 12:53:00,36.3,18.0,29.42,NW,315,6.1,25.4,48,0.00,,,0.00,Rainwise IP-100,2013-03-23 16:53:00,
2013-03-23 12:58:00,36.8,18.0,29.42,NW,315,7.7,22.6,47,0.00,,,0.00,Rainwise IP-100,2013-03-23 16:58:00,
2013-03-23 13:03:00,37.0,18.0,29.42,NE,45,3.3,14.9,47,0.00,,,0.00,Rainwise IP-100,2013-03-23 17:03:00,
2013-03-23 13:08:00,36.9,18.0,29.43,WNW,292,6.1,15.4,47,0.00,,,0.00,Rainwise IP-100,2013-03-23 17:08:00,
2013-03-23 13:13:00,36.8,18.0,29.42,NW,315,3.0,17.5,47,0.00,,,0.00,Rainwise IP-100,2013-03-23 17:13:00,
2013-03-23 13:18:00,36.8,18.0,29.42,NNW,337,7.9,18.0,47,0.00,,,0.00,Rainwise IP-100,2013-03-23 17:18:00,
2013-03-23 13:23:00,36.8,21.0,29.42,West,270,16.1,17.3,48,0.00,,,0.00,Rainwise IP-100,2013-03-23 17:23:00,
2013-03-23 13:28:00,37.3,18.0,29.42,West,270,4.9,16.6,47,0.00,,,0.00,Rainwise IP-100,2013-03-23 17:28:00,
2013-03-23 13:33:00,37.4,18.0,29.43,NW,315,7.2,21.5,46,0.00,,,0.00,Rainwise IP-100,2013-03-23 17:33:00,
2013-03-23 13:38:00,36.9,18.0,29.43,West,270,4.0,20.1,47,0.00,,,0.00,Rainwise IP-100,2013-03-23 17:38:00,
2013-03-23 13:43:00,36.5,18.0,29.43,SSW,202,3.7,18.7,47,0.00,,,0.00,Rainwise IP-100,2013-03-23 17:43:00,
2013-03-23 13:48:00,36.2,18.0,29.42,WNW,292,5.6,36.6,48,0.00,,,0.00,Rainwise IP-100,2013-03-23 17:48:00,
2013-03-23 13:53:00,36.3,18.0,29.43,WSW,247,3.7,22.6,47,0.00,,,0.00,Rainwise IP-100,2013-03-23 17:53:00,
2013-03-23 13:58:00,36.3,18.0,29.43,WNW,292,6.1,23.6,47,0.00,,,0.00,Rainwise IP-100,2013-03-23 17:58:00,
2013-03-23 14:03:00,36.2,18.0,29.43,WNW,292,3.7,15.2,48,0.00,,,0.00,Rainwise IP-100,2013-03-23 18:03:00,
2013-03-23 14:08:00,36.3,18.0,29.43,West,270,12.8,20.1,48,0.00,,,0.00,Rainwise IP-100,2013-03-23 18:08:00,
2013-03-23 14:13:00,36.4,18.0,29.43,WNW,292,8.4,16.8,48,0.00,,,0.00,Rainwise IP-100,2013-03-23 18:13:00,
2013-03-23 14:18:00,36.7,18.0,29.43,NNW,337,7.5,13.5,47,0.00,,,0.00,Rainwise IP-100,2013-03-23 18:18:00,
2013-03-23 14:23:00,37.2,18.0,29.43,WNW,292,3.5,16.6,47,0.00,,,0.00,Rainwise IP-100,2013-03-23 18:23:00,
2013-03-23 14:28:00,37.2,18.0,29.43,NNW,337,9.8,17.7,47,0.00,,,0.00,Rainwise IP-100,2013-03-23 18:28:00,
2013-03-23 14:33:00,37.4,18.0,29.44,NNW,337,7.7,18.0,47,0.00,,,0.00,Rainwise IP-100,2013-03-23 18:33:00,
2013-03-23 14:38:00,37.9,21.0,29.44,West,270,4.0,24.5,47,0.00,,,0.00,Rainwise IP-100,2013-03-23 18:38:00,
2013-03-23 14:43:00,38.7,21.0,29.44,NNE,22,6.1,17.5,46,0.00,,,0.00,Rainwise IP-100,2013-03-23 18:43:00,
2013-03-23 14:48:00,39.3,21.0,29.45,WNW,292,13.3,19.6,45,0.00,,,0.00,Rainwise IP-100,2013-03-23 18:48:00,
2013-03-23 14:53:00,39.3,21.0,29.45,WNW,292,5.8,17.3,45,0.00,,,0.00,Rainwise IP-100,2013-03-23 18:53:00,
2013-03-23 14:58:00,38.7,21.0,29.45,NNW,337,7.0,27.3,46,0.00,,,0.00,Rainwise IP-100,2013-03-23 18:58:00,
2013-03-23 15:03:00,37.8,21.0,29.44,WNW,292,9.1,22.2,47,0.00,,,0.00,Rainwise IP-100,2013-03-23 19:03:00,
2013-03-23 15:08:00,37.4,21.0,29.45,WNW,292,5.1,11.0,49,0.00,,,0.00,Rainwise IP-100,2013-03-23 19:08:00,
2013-03-23 15:13:00,37.6,21.0,29.45,WNW,292,8.2,14.0,49,0.00,,,0.00,Rainwise IP-100,2013-03-23 19:13:00,
2013-03-23 15:18:00,37.4,21.0,29.45,NNW,337,4.9,15.4,50,0.00,,,0.00,Rainwise IP-100,2013-03-23 19:18:00,
2013-03-23 15:23:00,37.1,21.0,29.46,WNW,292,4.0,13.1,50,0.00,,,0.00,Rainwise IP-100,2013-03-23 19:23:00,
2013-03-23 15:28:00,36.9,21.0,29.45,WNW,292,5.4,14.0,51,0.00,,,0.00,Rainwise IP-100,2013-03-23 19:28:00,
2013-03-23 15:33:00,36.9,21.0,29.46,WSW,247,6.1,16.1,52,0.00,,,0.00,Rainwise IP-100,2013-03-23 19:33:00,
2013-03-23 15:38:00,36.9,21.0,29.47,North,360,8.2,14.2,52,0.00,,,0.00,Rainwise IP-100,2013-03-23 19:38:00,
2013-03-23 15:43:00,36.8,23.0,29.46,NW,315,3.5,18.7,53,0.00,,,0.00,Rainwise IP-100,2013-03-23 19:43:00,
2013-03-23 15:48:00,36.7,23.0,29.47,NW,315,4.7,14.9,53,0.00,,,0.00,Rainwise IP-100,2013-03-23 19:48:00,
2013-03-23 15:53:00,37.1,23.0,29.46,NNW,337,16.1,16.6,54,0.00,,,0.00,Rainwise IP-100,2013-03-23 19:53:00,
2013-03-23 15:58:00,37.3,23.0,29.47,WNW,292,7.7,24.5,54,0.00,,,0.00,Rainwise IP-100,2013-03-23 19:58:00,
2013-03-23 16:03:00,36.8,24.0,29.47,NNW,337,14.7,14.7,57,0.00,,,0.00,Rainwise IP-100,2013-03-23 20:03:00,
2013-03-23 16:08:00,36.4,23.0,29.48,NW,315,11.2,15.4,58,0.00,,,0.00,Rainwise IP-100,2013-03-23 20:08:00,
2013-03-23 16:13:00,36.3,23.0,29.48,WNW,292,12.8,17.5,59,0.00,,,0.00,Rainwise IP-100,2013-03-23 20:13:00,
2013-03-23 16:18:00,35.9,23.0,29.47,WSW,247,8.2,21.9,59,0.00,,,0.00,Rainwise IP-100,2013-03-23 20:18:00,
2013-03-23 16:23:00,35.5,24.0,29.48,West,270,11.2,26.6,60,0.00,,,0.00,Rainwise IP-100,2013-03-23 20:23:00,
2013-03-23 16:28:00,35.3,23.0,29.48,WSW,247,6.5,15.2,61,0.00,,,0.00,Rainwise IP-100,2013-03-23 20:28:00,
2013-03-23 16:33:00,35.4,23.0,29.48,WNW,292,10.5,21.0,61,0.00,,,0.00,Rainwise IP-100,2013-03-23 20:33:00,
2013-03-23 16:38:00,35.6,24.0,29.48,NW,315,7.5,18.9,61,0.00,,,0.00,Rainwise IP-100,2013-03-23 20:38:00,
2013-03-23 16:43:00,35.5,24.0,29.48,WNW,292,4.7,20.3,61,0.00,,,0.00,Rainwise IP-100,2013-03-23 20:43:00,
2013-03-23 16:48:00,35.0,24.0,29.49,ENE,67,9.3,17.5,63,0.00,,,0.00,Rainwise IP-100,2013-03-23 20:48:00,
2013-03-23 16:53:00,34.2,24.0,29.49,West,270,6.3,22.9,67,0.00,,,0.00,Rainwise IP-100,2013-03-23 20:53:00,
2013-03-23 16:58:00,33.7,26.0,29.50,WSW,247,6.8,19.6,69,0.00,,,0.00,Rainwise IP-100,2013-03-23 20:58:00,
2013-03-23 17:03:00,33.4,24.0,29.49,WNW,292,2.8,14.2,70,0.00,,,0.00,Rainwise IP-100,2013-03-23 21:03:00,
2013-03-23 17:09:00,33.4,24.0,29.49,WNW,292,7.0,44.5,71,0.00,,,0.00,Rainwise IP-100,2013-03-23 21:09:00,
2013-03-23 17:14:00,33.4,26.0,29.49,NW,315,12.1,13.3,72,0.00,,,0.00,Rainwise IP-100,2013-03-23 21:14:00,
2013-03-23 17:19:00,33.2,24.0,29.50,NW,315,4.2,15.2,71,0.00,,,0.00,Rainwise IP-100,2013-03-23 21:19:00,
2013-03-23 17:24:00,33.2,24.0,29.50,WNW,292,9.8,16.8,71,0.00,,,0.00,Rainwise IP-100,2013-03-23 21:24:00,
2013-03-23 17:29:00,33.4,24.0,29.50,WNW,292,5.1,17.7,70,0.00,,,0.00,Rainwise IP-100,2013-03-23 21:29:00,
2013-03-23 17:34:00,33.6,26.0,29.51,WNW,292,6.8,14.2,68,0.00,,,0.00,Rainwise IP-100,2013-03-23 21:34:00,
2013-03-23 17:39:00,33.6,26.0,29.51,West,270,10.7,25.4,68,0.00,,,0.00,Rainwise IP-100,2013-03-23 21:39:00,
2013-03-23 17:44:00,33.6,26.0,29.51,WNW,292,6.3,15.2,68,0.00,,,0.00,Rainwise IP-100,2013-03-23 21:44:00,
2013-03-23 17:49:00,33.6,26.0,29.51,WNW,292,2.8,11.0,68,0.00,,,0.00,Rainwise IP-100,2013-03-23 21:49:00,
2013-03-23 17:54:00,33.5,26.0,29.51,WSW,247,4.2,13.8,68,0.00,,,0.00,Rainwise IP-100,2013-03-23 21:54:00,
2013-03-23 17:59:00,33.6,24.0,29.51,West,270,5.1,22.6,67,0.00,,,0.00,Rainwise IP-100,2013-03-23 21:59:00,
2013-03-23 18:04:00,33.8,24.0,29.51,WNW,292,9.8,15.4,66,0.00,,,0.00,Rainwise IP-100,2013-03-23 22:04:00,
2013-03-23 18:09:00,33.8,24.0,29.52,WNW,292,5.4,17.3,66,0.00,,,0.00,Rainwise IP-100,2013-03-23 22:09:00,
2013-03-23 18:14:00,33.8,24.0,29.51,NW,315,2.8,18.0,64,0.00,,,0.00,Rainwise IP-100,2013-03-23 22:14:00,
2013-03-23 18:19:00,33.8,24.0,29.51,WNW,292,5.6,11.4,64,0.00,,,0.00,Rainwise IP-100,2013-03-23 22:19:00,
2013-03-23 18:24:00,33.8,24.0,29.52,NW,315,8.2,18.2,64,0.00,,,0.00,Rainwise IP-100,2013-03-23 22:24:00,
2013-03-23 18:29:00,33.8,24.0,29.52,NNW,337,6.8,17.5,64,0.00,,,0.00,Rainwise IP-100,2013-03-23 22:29:00,
2013-03-23 18:34:00,33.8,24.0,29.52,WSW,247,4.2,11.7,64,0.00,,,0.00,Rainwise IP-100,2013-03-23 22:34:00,
2013-03-23 18:39:00,33.8,24.0,29.52,NNW,337,10.0,15.2,63,0.00,,,0.00,Rainwise IP-100,2013-03-23 22:39:00,
2013-03-23 18:44:00,33.8,24.0,29.52,WNW,292,3.5,10.0,63,0.00,,,0.00,Rainwise IP-100,2013-03-23 22:44:00,
2013-03-23 18:49:00,33.7,24.0,29.52,WSW,247,0.0,10.5,64,0.00,,,0.00,Rainwise IP-100,2013-03-23 22:49:00,
2013-03-23 18:54:00,33.6,24.0,29.52,West,270,4.7,10.5,65,0.00,,,0.00,Rainwise IP-100,2013-03-23 22:54:00,
2013-03-23 18:59:00,33.4,24.0,29.53,NNW,337,1.2,11.0,66,0.00,,,0.00,Rainwise IP-100,2013-03-23 22:59:00,
2013-03-23 19:04:00,33.3,24.0,29.52,WSW,247,1.2,8.9,66,0.00,,,0.00,Rainwise IP-100,2013-03-23 23:04:00,
2013-03-23 19:09:00,33.1,24.0,29.52,WSW,247,1.4,8.4,66,0.00,,,0.00,Rainwise IP-100,2013-03-23 23:09:00,
2013-03-23 19:14:00,33.1,24.0,29.53,WNW,292,4.2,12.6,66,0.00,,,0.00,Rainwise IP-100,2013-03-23 23:14:00,
2013-03-23 19:19:00,33.2,23.0,29.53,WNW,292,7.9,13.5,65,0.00,,,0.00,Rainwise IP-100,2013-03-23 23:19:00,
2013-03-23 19:24:00,33.2,23.0,29.52,WNW,292,11.2,20.5,65,0.00,,,0.00,Rainwise IP-100,2013-03-23 23:24:00,
2013-03-23 19:29:00,33.3,23.0,29.52,WNW,292,3.0,15.2,65,0.00,,,0.00,Rainwise IP-100,2013-03-23 23:29:00,
2013-03-23 19:34:00,33.3,23.0,29.53,WNW,292,3.3,15.9,65,0.00,,,0.00,Rainwise IP-100,2013-03-23 23:34:00,
2013-03-23 19:39:00,33.3,24.0,29.53,WNW,292,5.4,19.1,66,0.00,,,0.00,Rainwise IP-100,2013-03-23 23:39:00,
2013-03-23 19:44:00,33.2,24.0,29.53,NNW,337,5.6,15.4,66,0.00,,,0.00,Rainwise IP-100,2013-03-23 23:44:00,
2013-03-23 19:49:00,33.2,24.0,29.52,WSW,247,4.4,15.2,66,0.00,,,0.00,Rainwise IP-100,2013-03-23 23:49:00,
2013-03-23 19:54:00,33.2,24.0,29.53,NW,315,3.3,17.7,66,0.00,,,0.00,Rainwise IP-100,2013-03-23 23:54:00,
2013-03-23 19:59:00,33.1,24.0,29.53,NW,315,5.8,10.3,66,0.00,,,0.00,Rainwise IP-100,2013-03-23 23:59:00,
2013-03-23 20:04:00,33.0,24.0,29.53,WNW,292,3.0,11.0,67,0.00,,,0.00,Rainwise IP-100,2013-03-24 00:04:00,
2013-03-23 20:09:00,32.9,24.0,29.53,WNW,292,3.3,17.0,67,0.00,,,0.00,Rainwise IP-100,2013-03-24 00:09:00,
2013-03-23 20:14:00,32.8,24.0,29.54,WNW,292,3.7,8.6,67,0.00,,,0.00,Rainwise IP-100,2013-03-24 00:14:00,
2013-03-23 20:19:00,32.6,24.0,29.54,WNW,292,5.4,8.2,68,0.00,,,0.00,Rainwise IP-100,2013-03-24 00:19:00,
2013-03-23 20:24:00,32.5,24.0,29.54,NW,315,1.9,14.0,68,0.00,,,0.00,Rainwise IP-100,2013-03-24 00:24:00,
2013-03-23 20:29:00,32.3,23.0,29.54,West,270,7.2,8.4,69,0.00,,,0.00,Rainwise IP-100,2013-03-24 00:29:00,
2013-03-23 20:34:00,32.2,23.0,29.54,WNW,292,6.3,7.2,69,0.00,,,0.00,Rainwise IP-100,2013-03-24 00:34:00,
2013-03-23 20:39:00,32.3,23.0,29.54,WNW,292,3.5,17.0,69,0.00,,,0.00,Rainwise IP-100,2013-03-24 00:39:00,
2013-03-23 20:44:00,32.4,23.0,29.54,WNW,292,5.1,15.4,69,0.00,,,0.00,Rainwise IP-100,2013-03-24 00:44:00,
2013-03-23 20:49:00,32.3,23.0,29.54,WNW,292,10.3,11.7,69,0.00,,,0.00,Rainwise IP-100,2013-03-24 00:49:00,
2013-03-23 20:54:00,32.2,24.0,29.54,WSW,247,5.4,13.8,70,0.00,,,0.00,Rainwise IP-100,2013-03-24 00:54:00,
2013-03-23 20:59:00,32.2,24.0,29.54,West,270,7.7,13.1,70,0.00,,,0.00,Rainwise IP-100,2013-03-24 00:59:00,
2013-03-23 21:04:00,32.2,24.0,29.54,NNW,337,9.8,12.6,70,0.00,,,0.00,Rainwise IP-100,2013-03-24 01:04:00,
2013-03-23 21:09:00,32.2,24.0,29.54,WNW,292,4.0,13.3,71,0.00,,,0.00,Rainwise IP-100,2013-03-24 01:09:00,
2013-03-23 21:14:00,32.2,24.0,29.54,NW,315,3.5,16.8,71,0.00,,,0.00,Rainwise IP-100,2013-03-24 01:14:00,
2013-03-23 21:19:00,32.4,24.0,29.54,WSW,247,3.7,16.6,70,0.00,,,0.00,Rainwise IP-100,2013-03-24 01:19:00,
2013-03-23 21:24:00,32.4,24.0,29.54,NW,315,1.6,10.7,70,0.00,,,0.00,Rainwise IP-100,2013-03-24 01:24:00,
2013-03-23 21:29:00,32.3,24.0,29.55,NW,315,10.0,17.7,71,0.00,,,0.00,Rainwise IP-100,2013-03-24 01:29:00,
2013-03-23 21:34:00,32.3,24.0,29.55,WNW,292,2.8,15.2,71,0.00,,,0.00,Rainwise IP-100,2013-03-24 01:34:00,
2013-03-23 21:39:00,32.4,24.0,29.55,NW,315,1.6,13.1,71,0.00,,,0.00,Rainwise IP-100,2013-03-24 01:39:00,
2013-03-23 21:44:00,32.3,24.0,29.54,WNW,292,2.8,14.0,71,0.00,,,0.00,Rainwise IP-100,2013-03-24 01:44:00,
2013-03-23 21:49:00,32.3,24.0,29.54,West,270,3.7,13.5,71,0.00,,,0.00,Rainwise IP-100,2013-03-24 01:49:00,
2013-03-23 21:54:00,32.4,24.0,29.54,WNW,292,4.0,13.3,71,0.00,,,0.00,Rainwise IP-100,2013-03-24 01:54:00,
2013-03-23 21:59:00,32.4,24.0,29.54,NW,315,4.2,14.7,71,0.00,,,0.00,Rainwise IP-100,2013-03-24 01:59:00,
2013-03-23 22:04:00,32.3,24.0,29.55,WNW,292,1.4,19.8,71,0.00,,,0.00,Rainwise IP-100,2013-03-24 02:04:00,
2013-03-23 22:09:00,32.1,24.0,29.54,West,270,5.6,18.4,71,0.00,,,0.00,Rainwise IP-100,2013-03-24 02:09:00,
2013-03-23 22:14:00,32.1,24.0,29.54,NW,315,2.3,18.9,72,0.00,,,0.00,Rainwise IP-100,2013-03-24 02:14:00,
2013-03-23 22:19:00,32.1,24.0,29.54,WNW,292,5.8,10.0,72,0.00,,,0.00,Rainwise IP-100,2013-03-24 02:19:00,
2013-03-23 22:24:00,32.1,24.0,29.54,NW,315,4.0,13.5,72,0.00,,,0.00,Rainwise IP-100,2013-03-24 02:24:00,
2013-03-23 22:29:00,32.0,24.0,29.55,WNW,292,5.1,15.4,72,0.00,,,0.00,Rainwise IP-100,2013-03-24 02:29:00,
2013-03-23 22:34:00,32.0,24.0,29.55,NE,45,7.0,11.0,72,0.00,,,0.00,Rainwise IP-100,2013-03-24 02:34:00,
2013-03-23 22:39:00,32.1,24.0,29.54,West,270,14.2,14.2,72,0.00,,,0.00,Rainwise IP-100,2013-03-24 02:39:00,
2013-03-23 22:44:00,32.2,24.0,29.55,WNW,292,3.0,15.6,72,0.00,,,0.00,Rainwise IP-100,2013-03-24 02:44:00,
2013-03-23 22:49:00,32.1,24.0,29.55,WNW,292,4.2,20.3,72,0.00,,,0.00,Rainwise IP-100,2013-03-24 02:49:00,
2013-03-23 22:54:00,32.0,24.0,29.55,WNW,292,3.7,13.3,72,0.00,,,0.00,Rainwise IP-100,2013-03-24 02:54:00,
2013-03-23 23:00:00,32.1,24.0,29.55,WNW,292,14.2,17.7,72,0.00,,,0.00,Rainwise IP-100,2013-03-24 03:00:00,
2013-03-23 23:05:00,32.1,24.0,29.55,NNW,337,15.4,20.3,72,0.00,,,0.00,Rainwise IP-100,2013-03-24 03:05:00,
2013-03-23 23:10:00,32.1,24.0,29.55,West,270,13.3,27.5,72,0.00,,,0.00,Rainwise IP-100,2013-03-24 03:10:00,
2013-03-23 23:15:00,32.1,24.0,29.55,WNW,292,3.3,19.1,72,0.00,,,0.00,Rainwise IP-100,2013-03-24 03:15:00,
2013-03-23 23:20:00,32.0,24.0,29.55,NW,315,5.6,16.1,72,0.00,,,0.00,Rainwise IP-100,2013-03-24 03:20:00,
2013-03-23 23:25:00,32.1,24.0,29.55,WNW,292,9.3,15.9,72,0.00,,,0.00,Rainwise IP-100,2013-03-24 03:25:00,
2013-03-23 23:30:00,32.1,24.0,29.55,WNW,292,8.9,15.2,72,0.00,,,0.00,Rainwise IP-100,2013-03-24 03:30:00,
2013-03-23 23:35:00,32.0,24.0,29.55,NNW,337,8.6,17.3,72,0.00,,,0.00,Rainwise IP-100,2013-03-24 03:35:00,
2013-03-23 23:40:00,31.9,24.0,29.56,West,270,10.0,17.3,73,0.00,,,0.00,Rainwise IP-100,2013-03-24 03:40:00,
2013-03-23 23:45:00,31.9,24.0,29.56,NW,315,13.3,18.7,73,0.00,,,0.00,Rainwise IP-100,2013-03-24 03:45:00,
2013-03-23 23:50:00,31.8,24.0,29.55,WNW,292,3.7,13.3,73,0.00,,,0.00,Rainwise IP-100,2013-03-24 03:50:00,
2013-03-23 23:55:00,31.8,24.0,29.56,WNW,292,4.7,12.4,73,0.00,,,0.00,Rainwise IP-100,2013-03-24 03:55:00,